User: anonymous   Login
Location: Dürabuch
(48.2640°N, 11.2185°E)
Time: 02:38:21
(UTC+00:00)
Language:

SL-27 R/B - Orbit

View from above orbital plane
View from above orbital plane
View from above satellite
View from above satellite

Ground track
Ground track

The orbit data is extracted from the following two-line orbital elements,

1 40354U 14084B   24200.57680572  .00096559  00000-0  49959-3 0  9994
2 40354  74.7206 140.9678 0017730 267.5022  92.4181 15.80470444539099
Epoch (UTC): 18 July 2024 13:50:36
Eccentricity: 0.0017730
inclination: 74.7206°
perigee height: 317 km
apogee height: 341 km
right ascension of ascending node: 140.9678°
argument of perigee: 267.5022°
revolutions per day: 15.80470444
mean anomaly at epoch: 92.4181°
orbit number at epoch: 53909

The dashed part of the orbit path shows where the satellite is in the earth's shadow,  

DLR